Find Starlink 2643

NORAD ID: 48367 Int'l Des: 2021-038 Owner: SPXS Country: US Constellation: starlink operational
LEOCIRCULAR

实时位置

正在加载3D地球...

关于 Starlink 2643

正在加载描述...

即将过境

Passes for default location (London). Set your location on the main map for personalized predictions.

高度历史

Loading altitude history...

两行轨道根数

1 48367U 21038Q 26122.20934465 .00001623 00000-0 64047-4 0 9995
2 48367 53.1582 96.5780 0001144 83.1686 276.9446 15.31700399275450
Epoch: May 2, 2026 • Age: 25 hours

当前状态

高度 473.4 km
速度 7.63 km/s
星下点 -9.44°S, 133.01°E
发射日期 May 4, 2021
运行时间 4.9 years
类型 internet

技术详情

分类 Payload
质量 260.00 kg
干质量 248.00 kg
总质量 260.00 kg
长度 0.20 m
直径 2.80 m
跨度 9.00 m
形状 Box + pan
制造商 SPXS
平台类型 Starlink
阶段状态 In Orbit
所有者/国家 SPXS/US

Most Searched